ESUT Weather Reports


Display with metric or nautical units.
time (UTC)temp
F
wind
direction
speed
MPH
gust
MPH
rain 1hr
in
rain 24hr
in
rain mn
in
humidity
%
barometer
mb
20260503050307 30 340 6.0 0.0 0.00 0.00 0.00 68 1006.0
20260503043309 28 300 5.0 0.0 0.00 0.00 0.00 74 1006.0
20260503040306 28 260 3.0 0.0 0.00 0.00 0.00 79 1006.0
20260503033307 28 310 3.0 0.0 0.00 0.00 0.00 74 1006.0
20260503030307 28 340 6.0 0.0 0.00 0.00 0.00 79 1006.0
20260503023306 28 300 12.0 0.0 0.00 0.00 0.00 74 1006.0
20260503020307 30 290 7.0 0.0 0.00 0.00 0.00 68 1006.0
20260503013308 30 310 3.0 0.0 0.00 0.00 0.00 74 1006.0
20260503010309 30 350 7.0 0.0 0.00 0.00 0.00 74 1006.0
20260503003309 30 290 17.0 0.0 0.00 0.00 0.00 80 1005.0
20260503000306 32 300 12.0 23.0 0.00 0.00 0.00 80 1005.0
20260502233310 32 300 10.0 0.0 0.00 0.00 0.00 86 1005.0
20260502230307 30 350 10.0 0.0 0.00 0.00 0.00 92 1005.0
20260502223307 32 320 6.0 0.0 0.00 0.00 0.00 86 1005.0
20260502220307 32 290 6.0 0.0 0.00 0.00 0.00 86 1005.0
20260502213308 32 310 5.0 0.0 0.00 0.00 0.00 80 1005.0
20260502210306 32 0 2.0 0.0 0.00 0.00 0.00 80 1005.0
20260502203306 32 310 7.0 0.0 0.00 0.00 0.00 74 1005.0
20260502200307 32 290 8.0 0.0 0.00 0.00 0.00 80 1005.0
20260502193309 32 320 8.0 0.0 0.00 0.00 0.00 86 1005.0
20260502190307 32 260 8.0 0.0 0.00 0.00 0.00 86 1005.0
20260502183306 33 280 8.0 0.0 0.00 0.00 0.00 74 1005.0
20260502180308 33 250 7.0 0.0 0.00 0.00 0.00 74 1005.0
20260502170308 33 300 7.0 0.0 0.00 0.00 0.00 80 1005.0
20260502163308 33 300 18.0 0.0 0.00 0.00 0.00 80 1005.0
20260502160309 35 270 9.0 0.0 0.00 0.00 0.00 69 1005.0
20260502150309 37 240 10.0 0.0 0.00 0.00 0.00 64 1005.0
20260502130309 41 280 13.0 25.0 0.00 0.00 0.00 56 1005.0
20260502123308 39 290 13.0 0.0 0.00 0.00 0.00 60 1005.0
20260502120309 37 280 15.0 0.0 0.00 0.00 0.00 64 1005.0
20260502113310 35 300 14.0 0.0 0.00 0.00 0.00 74 1005.0
20260502110309 37 310 12.0 0.0 0.00 0.00 0.00 69 1005.0
20260502103308 37 300 12.0 24.0 0.00 0.00 0.00 59 1005.0
20260502100308 37 290 15.0 0.0 0.00 0.00 0.00 64 1005.0
20260502090308 35 290 13.0 0.0 0.00 0.00 0.00 86 1004.0
20260502070309 35 300 14.0 0.0 0.00 0.00 0.00 93 1003.0
20260502063308 37 300 12.0 0.0 0.00 0.00 0.00 93 1002.0
20260502060308 39 270 5.0 0.0 0.00 0.00 0.00 93 1002.0
20260502053308 39 220 5.0 0.0 0.00 0.00 0.00 93 1002.0